Lid_Strength_Index
-0 -1 -1 -1 -1 -1 -0 4 9 1 1 9 9 11 10 10 9 10 11 9 9 11 11 12 12 12 9 6 7 11 8 10 14 13 9 8 9 11 11 16 17 14 15 15
-0 -1 -1 -1 -1 -1 2 6 6 1 2 11 11 9 11 10 11 11 11 10 9 8 10 13 11 10 7 6 8 10 9 13 17 16 12 10 12 11 10 11 11 15 18 15
-1 -1 -1 -1 -1 -1 1 5 9 6 5 6 9 10 10 11 9 10 10 10 9 9 11 9 12 10 8 7 7 7 7 11 13 16 13 11 13 12 11 12 16 15 14 13
-1 -1 -1 -1 -1 -1 1 5 8 8 11 9 8 8 10 12 12 9 9 11 11 11 13 12 11 9 9 8 7 8 9 14 12 11 10 10 11 11 12 13 12 15 12 12
-1 -1 -1 -1 -1 -0 3 7 8 8 9 7 9 9 11 11 11 9 11 12 11 12 12 11 12 10 10 10 8 9 9 14 12 14 11 11 12 11 10 11 11 11 11 11
-1 -1 -1 -1 0 -0 4 4 4 5 7 9 9 10 9 10 10 9 8 9 10 11 10 7 6 6 6 7 9 10 11 13 14 16 12 12 16 12 11 10 9 10 13 10
-1 -1 -1 -0 -0 -0 1 2 3 7 9 8 9 8 8 9 9 10 9 8 9 7 4 5 6 7 7 7 8 7 11 12 13 16 14 20 11 7 8 10 9 8 8 8
-1 -1 -1 -1 -0 -0 1 3 5 7 9 8 8 8 8 7 7 9 9 8 6 5 7 11 13 13 12 11 9 9 9 12 15 17 17 13 11 9 9 10 11 7 8 7
-1 -1 -1 -1 -0 -0 1 2 3 6 9 9 8 9 7 9 9 9 8 7 6 5 9 12 15 17 14 15 13 9 9 9 13 15 18 19 11 8 7 7 14 7 7 7
-1 -1 -1 -1 -1 -1 1 2 3 4 8 7 8 9 9 6 8 10 9 9 9 6 11 13 15 15 12 15 15 15 14 13 15 15 17 14 9 8 7 15 12 7 6 6
-1 -1 -1 -1 -1 -1 1 1 2 3 6 6 8 8 8 7 7 10 9 9 10 10 12 13 13 14 12 12 11 13 14 15 15 14 16 18 7 9 11 8 7 7 8 8
-1 -1 -1 -1 -1 -1 0 2 2 2 6 7 5 6 6 7 8 9 8 9 9 8 11 11 11 12 11 12 14 9 13 11 12 12 12 8 6 7 6 7 7 9 10 9
-1 -1 -1 -1 -1 -1 1 1 2 2 7 6 6 7 6 5 6 6 9 8 8 7 7 9 10 12 10 13 12 10 9 7 10 10 8 7 7 7 9 9 9 10 11 11
-0 -1 -1 -1 -1 0 1 1 2 2 6 8 7 5 7 6 6 6 6 7 6 6 6 8 10 11 8 10 10 10 8 8 10 10 8 7 7 7 7 10 11 13 13 12
1 -0 -0 -1 -1 1 1 3 4 3 5 9 7 8 8 7 7 7 7 7 8 8 8 9 10 8 8 9 10 10 7 9 10 11 7 7 7 9 8 10 12 12 14 15
1 1 0 -0 1 1 1 7 4 3 4 8 9 7 10 9 9 8 8 8 8 8 8 8 8 9 8 11 12 8 7 8 7 7 9 10 12 13 12 11 12 13 14 14
2 2 1 2 3 4 7 8 6 4 4 8 9 9 11 12 10 8 8 8 8 9 9 9 9 9 9 10 12 9 8 7 11 12 13 13 13 12 13 14 15 15 16 16
4 4 4 3 3 5 8 8 8 5 7 8 10 10 11 13 10 10 8 9 9 9 9 10 12 11 11 13 10 9 8 13 14 15 15 15 14 15 16 16 17 19 19 19
4 5 8 8 8 9 9 7 9 10 9 9 11 11 11 13 12 11 10 10 12 10 12 12 13 13 15 12 11 11 14 16 15 19 19 18 18 18 19 19 19 20 21 21
6 7 9 11 10 9 9 10 10 11 12 12 11 16 13 15 13 12 13 11 12 14 14 15 16 15 11 11 16 17 17 19 20 20 21 21 20 20 20 20 19 18 20 21
9 10 10 12 12 11 13 13 14 15 15 15 16 16 13 15 14 12 15 13 14 16 16 17 14 15 12 18 19 20 18 19 19 20 21 18 18 19 20 21 21 21 21 22
13 13 14 13 13 14 15 16 20 19 15 19 17 17 16 17 16 15 15 15 16 17 20 18 17 13 17 20 21 22 21 21 22 25 24 23 21 20 21 22 23 24 25 26
13 13 15 14 17 18 18 19 17 19 20 21 21 19 18 18 17 17 17 18 17 20 19 17 13 15 19 21 24 27 28 27 26 27 26 26 26 26 26 26 26 26 27 27
14 16 19 17 19 19 16 14 13 21 20 21 19 21 18 20 19 19 18 20 22 20 21 17 11 16 20 23 24 26 27 26 26 26 26 27 27 27 27 26 27 26 27 29
16 17 19 19 18 23 27 31 27 26 22 21 21 21 19 21 21 22 22 23 22 19 17 12 13 19 22 24 24 25 26 27 26 26 26 27 27 27 28 28 27 27 29 29
19 21 19 25 23 20 27 28 24 26 23 23 21 22 22 20 20 23 22 19 20 16 15 14 18 22 23 24 24 24 23 24 25 26 26 26 27 27 25 28 28 28 27 29
19 19 26 22 21 19 22 24 23 24 22 19 20 22 19 25 23 23 19 19 13 13 15 18 20 20 21 23 23 24 25 25 25 26 26 26 26 29 28 27 28 28 27 29